Date String (YYYY-MM-DD hh:mm:ss) UTC,Instrument flags,absolute air pressure of the measurement (hPa),sample flow rate (lpm),inlet stack bypass flow (lpm),air temperature of the measurement (°C),ambient temperature measured by the external sensor (°C),aerosol sample conditioner tube jacket temperature (°C),OPC LED temperature (°C),internal box temperature (°C),relative humidity of the measurement (%),span deviation,mass concentration of particles derived from Lorenz-Mie calculation of OPC scattering (μg/m³),mass concentration of particles derived from Lorenz-Mie calculation of OPC scattering (μg/m³),mass concentration of particles derived from Lorenz-Mie calculation of OPC scattering (μg/m³)
DateTimeUTC,F1_M11,P_M11,Q1_M11,Q2_M11,T1_M11,T2_M11,T3_M11,T4_M11,T5_M11,U1_M11,ZSPAN_M11,X0_M11,X2_M11,X1_M11
2023-10-13 20:00:00,SystemResetWarning,0832.5,5.00,000.00,028.0,026.9,000.0,036.3,029.8,11.0,0000.0,0002.44,0001.69,0001.44
2023-10-13 20:01:00,SystemResetWarning,0832.6,4.99,000.00,028.1,026.9,000.0,036.4,029.8,11.0,0000.0,0003.07,0001.69,0001.43
2023-10-13 20:02:00,SystemResetWarning,0832.5,4.99,000.00,028.1,026.9,000.0,036.4,029.8,11.0,0000.0,0004.75,0001.70,0001.43
2023-10-13 20:03:00,SystemResetWarning,0832.5,4.99,000.00,028.1,026.9,000.0,036.4,029.8,11.0,0000.0,0004.58,0001.66,0001.42
2023-10-13 20:04:00,SystemResetWarning,0832.5,5.00,000.00,028.1,027.0,000.0,036.4,029.8,10.9,0000.0,0004.50,0001.66,0001.43
2023-10-13 20:05:00,SystemResetWarning,0832.5,5.01,000.00,028.1,027.0,000.0,036.4,029.8,10.9,0000.0,0004.51,0001.67,0001.42
2023-10-13 20:06:00,SystemResetWarning,0832.5,5.00,000.00,028.1,027.0,000.0,036.4,029.9,11.0,0000.0,0004.63,0001.68,0001.44
2023-10-13 20:07:00,SystemResetWarning,0832.5,5.00,000.00,028.2,027.0,000.0,036.4,029.9,10.8,0000.0,0008.69,0001.93,0001.53
2023-10-13 20:08:00,SystemResetWarning,0832.5,5.00,000.00,028.2,027.0,000.0,036.5,029.9,10.8,0000.0,0009.24,0002.01,0001.54
2023-10-13 20:09:00,SystemResetWarning,0832.5,4.99,000.00,028.2,027.0,000.0,036.5,029.9,10.8,0000.0,0009.25,0002.01,0001.54
2023-10-13 20:10:00,SystemResetWarning,0832.5,4.99,000.00,028.2,027.1,000.0,036.5,029.9,10.8,0000.0,0009.98,0002.09,0001.55
2023-10-13 20:11:00,SystemResetWarning,0832.6,4.99,000.00,028.2,027.1,000.0,036.5,029.9,10.8,0000.0,0012.26,0002.40,0001.58
2023-10-13 20:12:00,SystemResetWarning,0832.6,4.99,000.00,028.2,027.1,000.0,036.6,029.9,10.8,0000.0,0012.64,0002.43,0001.58
2023-10-13 20:13:00,SystemResetWarning,0832.6,5.00,000.00,028.3,027.1,000.0,036.6,030.0,10.8,0000.0,0011.69,0002.42,0001.57
2023-10-13 20:14:00,SystemResetWarning,0832.6,5.00,000.00,028.3,027.1,000.0,036.6,030.0,10.9,0000.0,0011.62,0002.43,0001.56
2023-10-13 20:15:00,SystemResetWarning,0832.5,5.01,000.00,028.3,027.2,000.0,036.6,030.0,10.8,0000.0,0011.61,0002.42,0001.56
2023-10-13 20:16:00,SystemResetWarning,0832.5,5.00,000.00,028.3,027.2,000.0,036.6,030.0,10.8,0000.0,0011.75,0002.41,0001.54
2023-10-13 20:17:00,SystemResetWarning,0832.5,5.01,000.00,028.3,027.2,000.0,036.6,030.1,10.9,0000.0,0012.13,0002.37,0001.53
2023-10-13 20:18:00,SystemResetWarning,0832.5,5.00,000.00,028.4,027.3,000.0,036.6,030.1,10.9,0000.0,0009.79,0002.13,0001.44
2023-10-13 20:19:00,SystemResetWarning,0832.5,5.00,000.00,028.4,027.3,000.0,036.7,030.1,10.8,0000.0,0008.71,0002.00,0001.40
2023-10-13 20:20:00,SystemResetWarning,0832.5,4.99,000.00,028.4,027.3,000.0,036.7,030.1,10.8,0000.0,0008.66,0001.95,0001.38
2023-10-13 20:21:00,SystemResetWarning,0832.5,5.00,000.00,028.4,027.3,000.0,036.7,030.1,10.8,0000.0,0008.07,0001.88,0001.37
2023-10-13 20:22:00,SystemResetWarning,0832.5,5.00,000.00,028.4,027.3,000.0,036.7,030.2,10.8,0000.0,0004.83,0001.60,0001.35
2023-10-13 20:23:00,SystemResetWarning,0832.5,5.00,000.00,028.4,027.3,000.0,036.7,030.2,10.8,0000.0,0004.03,0001.55,0001.35
2023-10-13 20:24:00,SystemResetWarning,0832.5,5.00,000.00,028.5,027.4,000.0,036.7,030.2,10.8,0000.0,0003.72,0001.53,0001.35
2023-10-13 20:25:00,SystemResetWarning,0832.5,5.00,000.00,028.5,027.4,000.0,036.8,030.2,10.8,0000.0,0003.87,0001.58,0001.36
2023-10-13 20:26:00,SystemResetWarning,0832.5,5.00,000.00,028.5,027.4,000.0,036.8,030.2,10.8,0000.0,0004.09,0001.61,0001.35
2023-10-13 20:27:00,SystemResetWarning,0832.5,5.01,000.00,028.5,027.4,000.0,036.8,030.3,10.8,0000.0,0004.03,0001.62,0001.35
2023-10-13 20:28:00,SystemResetWarning,0832.5,5.01,000.00,028.5,027.4,000.0,036.8,030.3,10.5,0000.0,0002.96,0001.59,0001.35
2023-10-13 20:29:00,SystemResetWarning,0832.5,5.00,000.00,028.5,027.4,000.0,036.8,030.3,10.5,0000.0,0002.95,0001.59,0001.35
2023-10-13 20:30:00,SystemResetWarning,0832.4,5.01,000.00,028.6,027.4,000.0,036.8,030.3,10.3,0000.0,0002.97,0001.60,0001.37
2023-10-13 20:31:00,SystemResetWarning,0832.5,5.00,000.00,028.6,027.4,000.0,036.8,030.3,10.3,0000.0,0003.58,0001.63,0001.38
2023-10-13 20:32:00,SystemResetWarning,0832.4,5.00,000.00,028.6,027.4,000.0,036.9,030.3,10.2,0000.0,0003.56,0001.65,0001.39
2023-10-13 20:33:00,SystemResetWarning,0832.5,5.00,000.00,028.6,027.4,000.0,036.9,030.3,10.2,0000.0,0003.59,0001.69,0001.39
2023-10-13 20:34:00,SystemResetWarning,0832.5,5.00,000.00,028.6,027.4,000.0,036.9,030.3,10.2,0000.0,0003.64,0001.72,0001.39
2023-10-13 20:35:00,SystemResetWarning,0832.5,5.00,000.00,028.6,027.4,000.0,036.9,030.3,10.2,0000.0,0003.69,0001.75,0001.40
2023-10-13 20:36:00,SystemResetWarning,0832.5,4.99,000.00,028.6,027.4,000.0,036.9,030.3,10.3,0000.0,0003.63,0001.73,0001.40
2023-10-13 20:37:00,SystemResetWarning,0832.5,5.00,000.00,028.6,027.4,000.0,036.9,030.3,10.3,0000.0,0003.65,0001.70,0001.39
2023-10-13 20:38:00,SystemResetWarning,0832.5,5.00,000.00,028.6,027.4,000.0,036.9,030.3,10.4,0000.0,0004.85,0001.68,0001.38
2023-10-13 20:39:00,SystemResetWarning,0832.5,5.00,000.00,028.6,027.4,000.0,036.9,030.3,10.4,0000.0,0005.00,0001.71,0001.40
2023-10-13 20:40:00,SystemResetWarning,0832.4,5.00,000.00,028.7,027.4,000.0,036.9,030.3,10.4,0000.0,0005.07,0001.72,0001.38
2023-10-13 20:41:00,SystemResetWarning,0832.5,5.00,000.00,028.7,027.4,000.0,037.0,030.4,10.4,0000.0,0005.13,0001.73,0001.37
2023-10-13 20:42:00,SystemResetWarning,0832.4,5.01,000.00,028.7,027.4,000.0,037.0,030.4,10.3,0000.0,0005.08,0001.76,0001.36
2023-10-13 20:43:00,SystemResetWarning,0832.4,5.01,000.00,028.7,027.4,000.0,037.0,030.4,10.2,0000.0,0004.80,0001.74,0001.34
2023-10-13 20:44:00,SystemResetWarning,0832.4,5.00,000.00,028.7,027.4,000.0,037.0,030.4,10.2,0000.0,0005.80,0001.70,0001.34
2023-10-13 20:45:00,SystemResetWarning,0832.4,4.99,000.00,028.7,027.5,000.0,037.0,030.4,10.2,0000.0,0005.71,0001.66,0001.34
2023-10-13 20:46:00,SystemResetWarning,0832.4,4.99,000.00,028.7,027.5,000.0,037.0,030.4,10.2,0000.0,0005.67,0001.65,0001.34
2023-10-13 20:47:00,SystemResetWarning,0832.4,5.00,000.00,028.7,027.5,000.0,037.0,030.4,10.3,0000.0,0005.62,0001.63,0001.34
2023-10-13 20:48:00,SystemResetWarning,0832.4,5.00,000.00,028.7,027.5,000.0,037.0,030.4,10.2,0000.0,0005.45,0001.62,0001.34
2023-10-13 20:49:00,SystemResetWarning,0832.4,5.00,000.00,028.8,027.5,000.0,037.1,030.4,10.3,0000.0,0004.40,0001.59,0001.34
2023-10-13 20:50:00,SystemResetWarning,0832.3,5.01,000.00,028.8,027.5,000.0,037.1,030.5,10.3,0000.0,0004.07,0001.60,0001.32
2023-10-13 20:51:00,SystemResetWarning,0832.3,5.00,000.00,028.8,027.5,000.0,037.1,030.5,10.2,0000.0,0004.34,0001.62,0001.31
2023-10-13 20:52:00,SystemResetWarning,0832.3,5.00,000.00,028.8,027.6,000.0,037.1,030.5,10.2,0000.0,0004.47,0001.65,0001.31
2023-10-13 20:53:00,SystemResetWarning,0832.4,5.00,000.00,028.8,027.6,000.0,037.1,030.5,10.2,0000.0,0004.08,0001.61,0001.30
2023-10-13 20:54:00,SystemResetWarning,0832.4,5.00,000.00,028.8,027.6,000.0,037.1,030.5,10.2,0000.0,0004.26,0001.61,0001.30
2023-10-13 20:55:00,SystemResetWarning,0832.3,5.00,000.00,028.9,027.6,000.0,037.1,030.5,10.2,0000.0,0003.63,0001.60,0001.29
2023-10-13 20:56:00,SystemResetWarning,0832.3,5.00,000.00,028.9,027.7,000.0,037.2,030.5,10.1,0000.0,0003.59,0001.61,0001.28
2023-10-13 20:57:00,SystemResetWarning,0832.3,4.99,000.00,028.9,027.7,000.0,037.2,030.6,10.2,0000.0,0003.60,0001.59,0001.26
2023-10-13 20:58:00,SystemResetWarning,0832.3,4.99,000.00,028.9,027.7,000.0,037.2,030.6,10.2,0000.0,0003.58,0001.57,0001.24
2023-10-13 20:59:00,SystemResetWarning,0832.3,5.00,000.00,028.9,027.7,000.0,037.2,030.6,10.1,0000.0,0003.60,0001.57,0001.22
